• In Lithuania
  • List of Countries
  • For 7 days
  • Water Temperature
  • Satellite Maps
  • Weather Map
  • Weather Widgets
  • user-avatar
    Login

    Hourly Weather Ischgl

    Today, 19 February, Monday

    Time Temperature Precipitation Wind Pressure Humidity
    00:00 -14°C° 0 mm 1 mps 568 mmHg 86%
    01:00 -14°C° 0 mm 2 mps 569 mmHg 84%
    02:00 -15°C° 0 mm 2 mps 568 mmHg 85%
    03:00 -13°C° 0 mm 1 mps 568 mmHg 86%
    04:00 -14°C° 0 mm 1 mps 567 mmHg 86%
    05:00 -14°C° 0 mm 1 mps 567 mmHg 86%
    06:00 -14°C° 0 mm 1 mps 567 mmHg 85%
    07:00 -15°C° 0 mm 1 mps 567 mmHg 85%
    08:00 -13°C° 0 mm 1 mps 567 mmHg 82%
    09:00 -11°C° 0 mm 1 mps 568 mmHg 78%
    10:00 -9°C° 0 mm 0 mps 569 mmHg 75%
    11:00 -8°C° 0 mm 1 mps 569 mmHg 76%
    12:00 -7°C° 0 mm 1 mps 569 mmHg 76%
    13:00 -6°C° 0 mm 1 mps 569 mmHg 76%
    14:00 -7°C° 0 mm 1 mps 569 mmHg 79%
    15:00 -7°C° 0 mm 1 mps 569 mmHg 81%
    16:00 -7°C° 0 mm 1 mps 568 mmHg 83%
    17:00 -8°C° 0 mm 1 mps 568 mmHg 87%
    18:00 -10°C° 0 mm 1 mps 567 mmHg 91%
    19:00 -11°C° 0 mm 1 mps 566 mmHg 95%
    20:00 -12°C° 0 mm 1 mps 566 mmHg 95%
    21:00 -12°C° 0 mm 1 mps 565 mmHg 94%
    22:00 -13°C° 0 mm 1 mps 565 mmHg 94%
    23:00 -13°C° 0 mm 1 mps 565 mmHg 92%

    Tomorrow, 20 February, Tuesday

    Time Temperature Precipitation Wind Pressure Humidity
    00:00 -14°C° 0 mm 1 mps 564 mmHg 91%
    01:00 -15°C° 0 mm 1 mps 564 mmHg 89%
    02:00 -15°C° 0 mm 1 mps 564 mmHg 89%
    03:00 -15°C° 0 mm 1 mps 563 mmHg 88%
    04:00 -15°C° 0 mm 1 mps 563 mmHg 87%
    05:00 -16°C° 0 mm 1 mps 563 mmHg 87%
    06:00 -16°C° 0 mm 1 mps 562 mmHg 87%
    07:00 -16°C° 0 mm 1 mps 562 mmHg 86%
    08:00 -14°C° 0 mm 1 mps 563 mmHg 83%
    09:00 -13°C° 0 mm 1 mps 564 mmHg 80%
    10:00 -11°C° 0 mm 1 mps 565 mmHg 77%
    11:00 -12°C° 0 mm 2 mps 565 mmHg 76%
    12:00 -12°C° 0 mm 2 mps 565 mmHg 76%
    13:00 -10°C° 0 mm 2 mps 565 mmHg 75%
    14:00 -10°C° 0.1 mm 2 mps 565 mmHg 78%
    15:00 -10°C° 0.1 mm 2 mps 565 mmHg 81%
    16:00 -10°C° 0.1 mm 2 mps 564 mmHg 84%
    17:00 -13°C° 0.1 mm 2 mps 564 mmHg 87%
    18:00 -14°C° 0.1 mm 2 mps 564 mmHg 91%
    19:00 -15°C° 0.1 mm 2 mps 564 mmHg 94%
    20:00 -15°C° 0.1 mm 2 mps 564 mmHg 95%
    21:00 -16°C° 0.1 mm 2 mps 564 mmHg 95%
    22:00 -16°C° 0.1 mm 2 mps 564 mmHg 95%
    23:00 -17°C° 0 mm 2 mps 563 mmHg 95%

    Day after tomorrow, 21 February, Wednesday

    Time Temperature Precipitation Wind Pressure Humidity
    00:00 -16°C° 0 mm 1 mps 563 mmHg 94%
    01:00 -16°C° 0 mm 1 mps 563 mmHg 94%
    02:00 -17°C° 0 mm 1 mps 563 mmHg 92%
    03:00 -17°C° 0 mm 1 mps 562 mmHg 91%
    04:00 -18°C° 0 mm 1 mps 562 mmHg 90%
    05:00 -18°C° 0 mm 1 mps 562 mmHg 88%
    06:00 -18°C° 0 mm 1 mps 562 mmHg 86%
    07:00 -18°C° 0 mm 1 mps 562 mmHg 84%
    08:00 -18°C° 0 mm 2 mps 563 mmHg 82%
    09:00 -16°C° 0 mm 2 mps 565 mmHg 79%
    10:00 -14°C° 0 mm 2 mps 566 mmHg 77%
    11:00 -13°C° 0 mm 2 mps 566 mmHg 76%
    12:00 -10°C° 0 mm 2 mps 566 mmHg 75%
    13:00 -9°C° 0 mm 2 mps 566 mmHg 73%
    14:00 -9°C° 0 mm 2 mps 566 mmHg 77%
    15:00 -9°C° 0 mm 2 mps 566 mmHg 80%
    16:00 -12°C° 0 mm 3 mps 566 mmHg 84%
    17:00 -12°C° 0.1 mm 2 mps 565 mmHg 87%
    18:00 -13°C° 0.1 mm 2 mps 565 mmHg 90%
    19:00 -14°C° 0.1 mm 2 mps 564 mmHg 94%
    20:00 -15°C° 0 mm 2 mps 564 mmHg 94%
    21:00 -14°C° 0 mm 1 mps 563 mmHg 94%
    22:00 -14°C° 0 mm 1 mps 563 mmHg 94%
    23:00 -15°C° 0 mm 1 mps 562 mmHg 93%

    22 February, Thursday

    Time Temperature Precipitation Wind Pressure Humidity
    00:00 -15°C° 0 mm 1 mps 562 mmHg 92%
    01:00 -16°C° 0 mm 1 mps 561 mmHg 91%
    02:00 -16°C° 0 mm 1 mps 561 mmHg 90%
    03:00 -16°C° 0 mm 1 mps 561 mmHg 89%
    04:00 -16°C° 0 mm 1 mps 560 mmHg 88%
    05:00 -18°C° 0 mm 2 mps 560 mmHg 87%
    06:00 -18°C° 0 mm 2 mps 560 mmHg 87%
    07:00 -18°C° 0 mm 2 mps 560 mmHg 86%
    08:00 -16°C° 0 mm 2 mps 561 mmHg 84%
    09:00 -15°C° 0 mm 2 mps 562 mmHg 81%
    10:00 -13°C° 0 mm 2 mps 562 mmHg 79%
    11:00 -12°C° 0.1 mm 2 mps 563 mmHg 79%
    12:00 -10°C° 0.1 mm 2 mps 563 mmHg 79%
    13:00 -9°C° 0.1 mm 2 mps 563 mmHg 78%
    14:00 -9°C° 0.2 mm 2 mps 563 mmHg 81%
    15:00 -9°C° 0.2 mm 2 mps 563 mmHg 84%
    16:00 -9°C° 0.2 mm 2 mps 563 mmHg 86%
    17:00 -10°C° 0.1 mm 2 mps 562 mmHg 89%
    18:00 -12°C° 0.1 mm 2 mps 562 mmHg 91%
    19:00 -11°C° 0.1 mm 1 mps 562 mmHg 93%
    20:00 -11°C° 0.1 mm 1 mps 562 mmHg 93%
    21:00 -12°C° 0.1 mm 1 mps 562 mmHg 92%
    22:00 -12°C° 0.1 mm 1 mps 562 mmHg 91%
    23:00 -12°C° 0 mm 1 mps 562 mmHg 90%

    23 February, Friday

    Time Temperature Precipitation Wind Pressure Humidity
    00:00 -12°C° 0 mm 1 mps 562 mmHg 89%
    01:00 -15°C° 0 mm 2 mps 562 mmHg 88%
    02:00 -13°C° 0 mm 1 mps 561 mmHg 87%
    03:00 -14°C° 0 mm 1 mps 561 mmHg 86%
    04:00 -14°C° 0 mm 1 mps 560 mmHg 86%
    05:00 -14°C° 0 mm 1 mps 560 mmHg 84%
    06:00 -14°C° 0 mm 1 mps 560 mmHg 83%
    07:00 -15°C° 0 mm 1 mps 560 mmHg 81%
    08:00 -13°C° 0 mm 1 mps 562 mmHg 78%
    09:00 -11°C° 0 mm 1 mps 563 mmHg 74%
    10:00 -9°C° 0 mm 1 mps 564 mmHg 71%
    11:00 -8°C° 0 mm 1 mps 564 mmHg 72%
    12:00 -8°C° 0 mm 2 mps 565 mmHg 73%
    13:00 -7°C° 0 mm 2 mps 565 mmHg 74%
    14:00 -7°C° 0.1 mm 2 mps 565 mmHg 77%
    15:00 -8°C° 0.1 mm 2 mps 565 mmHg 80%
    16:00 -8°C° 0.1 mm 2 mps 565 mmHg 83%
    17:00 -9°C° 0.1 mm 2 mps 564 mmHg 86%
    18:00 -10°C° 0.1 mm 2 mps 564 mmHg 89%
    19:00 -11°C° 0.1 mm 1 mps 564 mmHg 92%
    20:00 -11°C° 0 mm 1 mps 564 mmHg 91%
    21:00 -12°C° 0 mm 1 mps 564 mmHg 90%
    22:00 -13°C° 0 mm 1 mps 564 mmHg 89%
    23:00 -13°C° 0 mm 1 mps 564 mmHg 88%

    24 February, Saturday

    Time Temperature Precipitation Wind Pressure Humidity
    00:00 -13°C° 0 mm 1 mps 564 mmHg 86%
    01:00 -14°C° 0 mm 1 mps 564 mmHg 85%
    02:00 -14°C° 0 mm 1 mps 564 mmHg 84%
    03:00 -14°C° 0 mm 1 mps 564 mmHg 82%
    04:00 -14°C° 0 mm 1 mps 564 mmHg 81%
    05:00 -14°C° 0 mm 1 mps 564 mmHg 80%
    06:00 -14°C° 0 mm 1 mps 565 mmHg 80%
    07:00 -14°C° 0 mm 1 mps 565 mmHg 79%
    08:00 -12°C° 0 mm 1 mps 566 mmHg 76%
    09:00 -10°C° 0 mm 1 mps 568 mmHg 74%
    10:00 -8°C° 0 mm 1 mps 569 mmHg 71%
    11:00 -7°C° 0 mm 1 mps 569 mmHg 74%
    12:00 -7°C° 0 mm 1 mps 570 mmHg 76%
    13:00 -7°C° 0 mm 2 mps 570 mmHg 79%
    14:00 -7°C° 0 mm 2 mps 570 mmHg 81%
    15:00 -8°C° 0 mm 2 mps 569 mmHg 82%
    16:00 -8°C° 0 mm 2 mps 569 mmHg 84%
    17:00 -10°C° 0 mm 2 mps 568 mmHg 87%
    18:00 -12°C° 0 mm 2 mps 568 mmHg 89%
    19:00 -12°C° 0 mm 1 mps 567 mmHg 92%
    20:00 -12°C° 0 mm 1 mps 567 mmHg 91%
    21:00 -13°C° 0 mm 1 mps 567 mmHg 90%
    22:00 -13°C° 0 mm 1 mps 567 mmHg 89%
    23:00 -14°C° 0 mm 1 mps 567 mmHg 89%
    Show more